Location: Claremont
(33.9858°S, 18.4575°E)
Time: 16:17:22
(UTC+00:00)

deb Transit VC - Pass Details

Date: 28 September 2021
Orbit: 840 x 909 km, 90.5° (Epoch: 20 October)

Event Time Altitude Azimuth Distance (km) Brightness Sun altitude
Rises 03:51:16 0° 165° (SSE) 3,427 ? -8.2°
Reaches altitude 10° 03:53:57 10° 155° (SSE) 2,486 ? -7.7°
Maximum altitude 03:58:52 32° 93° (E) 1,432 ? -6.7°
Drops below altitude 10° 04:03:46 10° 30° (NNE) 2,478 ? -5.7°
Sets 04:06:25 0° 20° (NNE) 3,414 ? -5.1°
